Powrót do katalogu

STARLINK-5690

AktywnyŁącznośćVLEO
NORAD 55480·PAYLOAD·🇺🇸 United States

Wystrzelony Feb 2, 2023 z Cape Canaveral Space Force Station

Loading…

Następne Przeloty (najbliższe 24 godziny)

TLE

ŚwieżeSource: CelesTrak SupGP

Epoka: Sep 15, 2026, 02:06 UTC

1 55480C 23015AH  26258.08798611  .00006627  00000+0  24008-3 0  2581
2 55480  43.0033 349.9301 0001408 269.7427  48.6324 15.27569976    11

Śledź STARLINK-5690 w czasie rzeczywistym z AllMySat

Download on the App Store